Time,TemperatureF,DewpointF,PressureIn,WindDirection,WindDirectionDegrees,WindSpeedMPH,WindSpeedGustMPH,Humidity,HourlyPrecipIn,Conditions,Clouds,dailyrainin,SoftwareType,DateUTC
2013-01-11 00:03:00,32.0,23.0,30.47,NNE,31,0.0,2.0,68,0.00,,,0.00,,2013-01-11 05:03:00,
2013-01-11 00:13:00,32.0,23.0,30.47,NNE,31,0.0,2.0,68,0.00,,,0.00,,2013-01-11 05:13:00,
2013-01-11 00:22:00,31.0,22.0,30.48,East,97,0.0,3.0,69,0.00,,,0.00,,2013-01-11 05:22:00,
2013-01-11 00:33:00,31.0,22.0,30.48,NNE,30,0.0,5.0,70,0.00,,,0.00,,2013-01-11 05:33:00,
2013-01-11 00:43:00,31.0,22.0,30.48,NNE,30,0.0,5.0,70,0.00,,,0.00,,2013-01-11 05:43:00,
2013-01-11 00:53:00,31.0,22.0,30.48,NNE,30,0.0,0.0,69,0.00,,,0.00,,2013-01-11 05:53:00,
2013-01-11 01:03:00,30.0,22.0,30.47,NNE,30,0.0,1.0,71,0.00,,,0.00,,2013-01-11 06:03:00,
2013-01-11 01:12:00,30.0,22.0,30.47,NNE,30,0.0,1.0,71,0.00,,,0.00,,2013-01-11 06:12:00,
2013-01-11 01:22:00,29.0,21.0,30.46,WNW,299,0.0,1.0,73,0.00,,,0.00,,2013-01-11 06:22:00,
2013-01-11 01:32:00,30.0,22.0,30.46,NE,56,0.0,0.0,73,0.00,,,0.00,,2013-01-11 06:32:00,
2013-01-11 01:42:00,30.0,22.0,30.46,NE,56,0.0,0.0,73,0.00,,,0.00,,2013-01-11 06:42:00,
2013-01-11 01:52:00,30.0,22.0,30.45,ENE,59,0.0,2.0,73,0.00,,,0.00,,2013-01-11 06:52:00,
2013-01-11 02:02:00,29.0,21.0,30.46,West,277,0.0,1.0,73,0.00,,,0.00,,2013-01-11 07:02:00,
2013-01-11 02:12:00,29.0,22.0,30.46,West,277,0.0,0.0,75,0.00,,,0.00,,2013-01-11 07:12:00,
2013-01-11 02:22:00,29.0,22.0,30.46,West,277,0.0,0.0,75,0.00,,,0.00,,2013-01-11 07:22:00,
2013-01-11 02:32:00,29.0,22.0,30.46,West,277,0.0,0.0,75,0.00,,,0.00,,2013-01-11 07:32:00,
2013-01-11 02:42:00,29.0,22.0,30.46,West,277,0.0,0.0,74,0.00,,,0.00,,2013-01-11 07:42:00,
2013-01-11 02:52:00,29.0,22.0,30.46,West,277,0.0,0.0,74,0.00,,,0.00,,2013-01-11 07:52:00,
2013-01-11 03:02:00,29.0,22.0,30.45,NNW,340,0.0,1.0,74,0.00,,,0.00,,2013-01-11 08:02:00,
2013-01-11 03:12:00,29.0,22.0,30.45,NNW,340,0.0,1.0,75,0.00,,,0.00,,2013-01-11 08:12:00,
2013-01-11 03:22:00,29.0,22.0,30.45,NNW,340,0.0,1.0,75,0.00,,,0.00,,2013-01-11 08:22:00,
2013-01-11 03:32:00,29.0,22.0,30.45,NNW,340,0.0,0.0,75,0.00,,,0.00,,2013-01-11 08:32:00,
2013-01-11 03:42:00,29.0,22.0,30.45,NNW,340,0.0,0.0,75,0.00,,,0.00,,2013-01-11 08:42:00,
2013-01-11 03:53:00,29.0,22.0,30.44,NNW,340,0.0,0.0,75,0.00,,,0.00,,2013-01-11 08:53:00,
2013-01-11 04:02:00,29.0,22.0,30.43,NNW,340,0.0,0.0,75,0.00,,,0.00,,2013-01-11 09:02:00,
2013-01-11 04:12:00,29.0,22.0,30.43,NNW,340,0.0,0.0,75,0.00,,,0.00,,2013-01-11 09:12:00,
2013-01-11 04:23:00,27.0,21.0,30.43,NNW,340,0.0,0.0,79,0.00,,,0.00,,2013-01-11 09:23:00,
2013-01-11 04:32:00,29.0,23.0,30.43,NNW,340,0.0,0.0,78,0.00,,,0.00,,2013-01-11 09:32:00,
2013-01-11 04:42:00,29.0,23.0,30.43,NNW,340,0.0,0.0,78,0.00,,,0.00,,2013-01-11 09:42:00,
2013-01-11 04:52:00,28.0,21.0,30.43,NNW,340,0.0,0.0,76,0.00,,,0.00,,2013-01-11 09:52:00,
2013-01-11 05:02:00,28.0,21.0,30.42,NNW,340,0.0,0.0,76,0.00,,,0.00,,2013-01-11 10:02:00,
2013-01-11 05:12:00,28.0,21.0,30.42,NNW,340,0.0,0.0,76,0.00,,,0.00,,2013-01-11 10:12:00,
2013-01-11 05:22:00,27.0,22.0,30.43,NNW,340,0.0,1.0,80,0.00,,,0.00,,2013-01-11 10:22:00,
2013-01-11 05:32:00,27.0,22.0,30.43,NNW,340,0.0,0.0,81,0.00,,,0.00,,2013-01-11 10:32:00,
2013-01-11 05:42:00,27.0,22.0,30.43,NNW,340,0.0,0.0,81,0.00,,,0.00,,2013-01-11 10:42:00,
2013-01-11 05:53:00,28.0,22.0,30.43,NNW,340,0.0,0.0,77,0.00,,,0.00,,2013-01-11 10:53:00,
2013-01-11 06:03:00,28.0,22.0,30.43,NNW,340,0.0,0.0,78,0.00,,,0.00,,2013-01-11 11:03:00,
2013-01-11 06:12:00,28.0,22.0,30.43,NNW,340,0.0,0.0,78,0.00,,,0.00,,2013-01-11 11:12:00,
2013-01-11 06:22:00,28.0,22.0,30.43,NNW,340,0.0,0.0,78,0.00,,,0.00,,2013-01-11 11:22:00,
2013-01-11 06:33:00,28.0,22.0,30.44,NNW,340,0.0,0.0,78,0.00,,,0.00,,2013-01-11 11:33:00,
2013-01-11 06:42:00,28.0,22.0,30.44,NNW,340,0.0,0.0,78,0.00,,,0.00,,2013-01-11 11:42:00,
2013-01-11 06:53:00,27.0,21.0,30.45,NNW,340,0.0,0.0,79,0.00,,,0.00,,2013-01-11 11:53:00,
2013-01-11 07:03:00,28.0,23.0,30.44,NNW,340,0.0,0.0,80,0.00,,,0.00,,2013-01-11 12:03:00,
2013-01-11 07:12:00,28.0,23.0,30.44,NNW,340,0.0,0.0,80,0.00,,,0.00,,2013-01-11 12:12:00,
2013-01-11 07:22:00,28.0,23.0,30.45,NNW,340,0.0,0.0,80,0.00,,,0.00,,2013-01-11 12:22:00,
2013-01-11 07:33:00,28.0,22.0,30.45,NNW,340,0.0,0.0,79,0.00,,,0.00,,2013-01-11 12:33:00,
2013-01-11 07:42:00,28.0,22.0,30.45,NNW,340,0.0,0.0,79,0.00,,,0.00,,2013-01-11 12:42:00,
2013-01-11 07:53:00,28.0,23.0,30.45,NNW,340,0.0,0.0,80,0.00,,,0.00,,2013-01-11 12:53:00,
2013-01-11 08:03:00,28.0,23.0,30.45,NNW,340,0.0,0.0,81,0.00,,,0.00,,2013-01-11 13:03:00,
2013-01-11 08:13:00,28.0,23.0,30.45,NNW,340,0.0,0.0,81,0.00,,,0.00,,2013-01-11 13:13:00,
2013-01-11 08:22:00,28.0,23.0,30.45,NNW,340,0.0,0.0,81,0.00,,,0.00,,2013-01-11 13:22:00,
2013-01-11 08:33:00,28.0,23.0,30.45,NNW,340,0.0,0.0,81,0.00,,,0.00,,2013-01-11 13:33:00,
2013-01-11 08:42:00,28.0,23.0,30.45,NNW,340,0.0,0.0,81,0.00,,,0.00,,2013-01-11 13:42:00,
2013-01-11 08:53:00,28.0,23.0,30.45,NNW,340,0.0,1.0,82,0.00,,,0.00,,2013-01-11 13:53:00,
2013-01-11 09:03:00,29.0,24.0,30.44,NNW,340,0.0,1.0,82,0.00,,,0.00,,2013-01-11 14:03:00,
2013-01-11 09:12:00,29.0,24.0,30.44,NNW,340,0.0,1.0,82,0.00,,,0.00,,2013-01-11 14:12:00,
2013-01-11 09:23:00,30.0,24.0,30.45,NNW,340,0.0,0.0,77,0.00,,,0.00,,2013-01-11 14:23:00,
2013-01-11 09:33:00,31.0,23.0,30.45,NNW,340,0.0,0.0,73,0.00,,,0.00,,2013-01-11 14:33:00,
2013-01-11 09:43:00,31.0,24.0,30.45,NNW,340,0.0,0.0,74,0.00,,,0.00,,2013-01-11 14:43:00,
2013-01-11 09:53:00,31.0,24.0,30.45,NNW,340,0.0,0.0,74,0.00,,,0.00,,2013-01-11 14:53:00,
2013-01-11 10:03:00,32.0,24.0,30.45,NNW,340,0.0,0.0,72,0.00,,,0.00,,2013-01-11 15:03:00,
2013-01-11 10:13:00,33.0,24.0,30.45,NNW,340,0.0,0.0,69,0.00,,,0.00,,2013-01-11 15:13:00,
2013-01-11 10:23:00,33.0,24.0,30.45,NNW,340,0.0,0.0,69,0.00,,,0.00,,2013-01-11 15:23:00,
2013-01-11 10:33:00,33.0,24.0,30.44,NNW,340,0.0,0.0,69,0.00,,,0.00,,2013-01-11 15:33:00,
2013-01-11 10:43:00,33.0,24.0,30.44,NNW,340,0.0,0.0,69,0.00,,,0.00,,2013-01-11 15:43:00,
2013-01-11 10:53:00,34.0,25.0,30.42,NNW,340,0.0,1.0,68,0.00,,,0.00,,2013-01-11 15:53:00,
2013-01-11 11:03:00,35.0,25.0,30.42,NNW,340,0.0,0.0,66,0.00,,,0.00,,2013-01-11 16:03:00,
2013-01-11 11:12:00,35.0,25.0,30.40,NNW,340,0.0,0.0,66,0.00,,,0.00,,2013-01-11 16:12:00,
2013-01-11 11:23:00,35.0,25.0,30.40,NNW,340,0.0,0.0,66,0.00,,,0.00,,2013-01-11 16:23:00,
2013-01-11 11:33:00,36.0,26.0,30.38,NNW,340,0.0,1.0,66,0.00,,,0.00,,2013-01-11 16:33:00,
2013-01-11 11:43:00,36.0,26.0,30.38,NNW,340,0.0,1.0,66,0.00,,,0.00,,2013-01-11 16:43:00,
2013-01-11 11:53:00,36.0,26.0,30.38,NNW,340,0.0,2.0,66,0.00,,,0.00,,2013-01-11 16:53:00,
2013-01-11 12:03:00,37.0,26.0,30.37,NNW,340,0.0,2.0,65,0.00,,,0.00,,2013-01-11 17:03:00,
2013-01-11 12:12:00,37.0,27.0,30.37,SW,233,1.0,3.0,67,0.00,,,0.00,,2013-01-11 17:12:00,
2013-01-11 12:22:00,37.0,27.0,30.37,SW,233,1.0,3.0,67,0.00,,,0.00,,2013-01-11 17:22:00,
2013-01-11 12:33:00,36.0,26.0,30.37,SW,233,0.0,0.0,67,0.00,,,0.00,,2013-01-11 17:33:00,
2013-01-11 12:43:00,36.0,26.0,30.37,SW,233,0.0,0.0,67,0.00,,,0.00,,2013-01-11 17:43:00,
2013-01-11 12:53:00,37.0,27.0,30.36,SW,233,0.0,0.0,68,0.00,,,0.00,,2013-01-11 17:53:00,
2013-01-11 13:03:00,37.0,27.0,30.35,SW,233,0.0,2.0,67,0.00,,,0.00,,2013-01-11 18:03:00,
2013-01-11 13:13:00,37.0,27.0,30.35,SW,233,0.0,2.0,67,0.00,,,0.00,,2013-01-11 18:13:00,
2013-01-11 13:23:00,37.0,27.0,30.34,SW,233,0.0,0.0,67,0.00,,,0.00,,2013-01-11 18:23:00,
2013-01-11 13:33:00,37.0,27.0,30.34,SW,233,0.0,0.0,67,0.00,,,0.00,,2013-01-11 18:33:00,
2013-01-11 13:43:00,37.0,27.0,30.34,SW,233,0.0,0.0,67,0.00,,,0.00,,2013-01-11 18:43:00,
2013-01-11 13:53:00,37.0,27.0,30.34,SW,233,0.0,0.0,68,0.00,,,0.00,,2013-01-11 18:53:00,
2013-01-11 14:03:00,37.0,27.0,30.34,SW,233,0.0,0.0,68,0.00,,,0.00,,2013-01-11 19:03:00,
2013-01-11 14:12:00,37.0,27.0,30.34,SW,233,0.0,0.0,68,0.00,,,0.00,,2013-01-11 19:12:00,
2013-01-11 14:22:00,37.0,28.0,30.32,SW,233,0.0,1.0,69,0.00,,,0.00,,2013-01-11 19:22:00,
2013-01-11 14:33:00,37.0,28.0,30.32,SW,233,0.0,0.0,69,0.00,,,0.00,,2013-01-11 19:33:00,
2013-01-11 14:43:00,37.0,28.0,30.32,SW,233,0.0,0.0,69,0.00,,,0.00,,2013-01-11 19:43:00,
2013-01-11 14:54:00,37.0,28.0,30.32,SW,233,0.0,1.0,69,0.00,,,0.00,,2013-01-11 19:54:00,
2013-01-11 15:03:00,37.0,28.0,30.32,SW,233,0.0,0.0,70,0.00,,,0.00,,2013-01-11 20:03:00,
2013-01-11 15:12:00,37.0,28.0,30.32,SW,233,0.0,0.0,70,0.00,,,0.00,,2013-01-11 20:12:00,
2013-01-11 15:22:00,37.0,28.0,30.30,SW,233,0.0,0.0,70,0.00,,,0.00,,2013-01-11 20:22:00,
2013-01-11 15:33:00,37.0,28.0,30.30,SW,233,0.0,0.0,71,0.00,,,0.00,,2013-01-11 20:33:00,
2013-01-11 15:43:00,37.0,28.0,30.30,SW,233,0.0,0.0,71,0.00,,,0.00,,2013-01-11 20:43:00,
2013-01-11 15:53:00,37.0,28.0,30.30,SW,233,0.0,0.0,71,0.00,,,0.00,,2013-01-11 20:53:00,
2013-01-11 16:03:00,37.0,28.0,30.29,SW,233,0.0,0.0,71,0.00,,,0.00,,2013-01-11 21:03:00,
2013-01-11 16:12:00,37.0,28.0,30.29,SW,233,0.0,0.0,71,0.00,,,0.00,,2013-01-11 21:12:00,
2013-01-11 16:23:00,37.0,28.0,30.29,SW,233,0.0,0.0,71,0.00,,,0.00,,2013-01-11 21:23:00,
2013-01-11 16:33:00,37.0,29.0,30.28,SW,233,0.0,0.0,72,0.00,,,0.00,,2013-01-11 21:33:00,
2013-01-11 16:42:00,37.0,29.0,30.28,SW,233,0.0,0.0,72,0.00,,,0.00,,2013-01-11 21:42:00,
2013-01-11 16:53:00,37.0,29.0,30.27,SW,233,0.0,0.0,72,0.00,,,0.00,,2013-01-11 21:53:00,
2013-01-11 17:03:00,37.0,29.0,30.27,SW,233,0.0,0.0,73,0.00,,,0.00,,2013-01-11 22:03:00,
2013-01-11 17:12:00,36.0,28.0,30.26,SW,233,0.0,0.0,73,0.00,,,0.00,,2013-01-11 22:12:00,
2013-01-11 17:22:00,36.0,28.0,30.26,SW,233,0.0,0.0,73,0.00,,,0.00,,2013-01-11 22:22:00,
2013-01-11 17:33:00,36.0,29.0,30.26,SW,233,0.0,0.0,76,0.00,,,0.00,,2013-01-11 22:33:00,
2013-01-11 17:42:00,36.0,29.0,30.26,SW,233,0.0,0.0,76,0.00,,,0.00,,2013-01-11 22:42:00,
2013-01-11 17:53:00,36.0,30.0,30.26,SW,233,0.0,0.0,78,0.00,,,0.00,,2013-01-11 22:53:00,
2013-01-11 18:02:00,36.0,30.0,30.26,SW,233,0.0,0.0,80,0.00,,,0.00,,2013-01-11 23:02:00,
2013-01-11 18:13:00,36.0,30.0,30.26,SW,233,0.0,0.0,80,0.00,,,0.00,,2013-01-11 23:13:00,
2013-01-11 18:23:00,36.0,31.0,30.25,SW,233,0.0,0.0,82,0.00,,,0.00,,2013-01-11 23:23:00,
2013-01-11 18:32:00,36.0,31.0,30.25,SW,233,0.0,0.0,83,0.01,,,0.01,,2013-01-11 23:32:00,
2013-01-11 18:43:00,36.0,31.0,30.25,SW,233,0.0,0.0,83,0.01,,,0.01,,2013-01-11 23:43:00,
2013-01-11 18:53:00,35.0,31.0,30.24,SW,233,0.0,0.0,84,0.01,,,0.01,,2013-01-11 23:53:00,
2013-01-11 19:02:00,35.0,31.0,30.23,SW,233,0.0,0.0,86,0.01,,,0.01,,2013-01-12 00:02:00,
2013-01-11 19:12:00,35.0,32.0,30.22,SW,233,0.0,0.0,87,0.01,,,0.01,,2013-01-12 00:12:00,
2013-01-11 19:23:00,35.0,32.0,30.22,SW,233,0.0,0.0,87,0.01,,,0.01,,2013-01-12 00:23:00,
2013-01-11 19:33:00,35.0,32.0,30.22,SW,233,0.0,0.0,89,0.01,,,0.02,,2013-01-12 00:33:00,
2013-01-11 19:43:00,35.0,32.0,30.22,SW,233,0.0,0.0,89,0.01,,,0.02,,2013-01-12 00:43:00,
2013-01-11 19:53:00,35.0,32.0,30.22,SW,233,0.0,0.0,90,0.01,,,0.02,,2013-01-12 00:53:00,
2013-01-11 20:02:00,34.0,32.0,30.22,SW,233,0.0,0.0,91,0.01,,,0.02,,2013-01-12 01:02:00,
2013-01-11 20:12:00,34.0,32.0,30.22,SW,233,0.0,0.0,91,0.01,,,0.02,,2013-01-12 01:12:00,
2013-01-11 20:22:00,34.0,32.0,30.22,SW,233,0.0,0.0,92,0.03,,,0.04,,2013-01-12 01:22:00,
2013-01-11 20:33:00,34.0,32.0,30.22,SW,233,0.0,0.0,92,0.03,,,0.05,,2013-01-12 01:33:00,
2013-01-11 20:43:00,34.0,32.0,30.22,SW,233,0.0,0.0,92,0.03,,,0.05,,2013-01-12 01:43:00,
2013-01-11 20:53:00,34.0,32.0,30.21,WSW,244,0.0,0.0,93,0.04,,,0.06,,2013-01-12 01:53:00,
2013-01-11 21:02:00,34.0,32.0,30.20,WSW,244,0.0,0.0,93,0.04,,,0.06,,2013-01-12 02:02:00,
2013-01-11 21:12:00,34.0,32.0,30.20,WSW,244,0.0,0.0,93,0.04,,,0.06,,2013-01-12 02:12:00,
2013-01-11 21:22:00,34.0,32.0,30.20,WSW,244,0.0,0.0,94,0.03,,,0.07,,2013-01-12 02:22:00,
2013-01-11 21:33:00,35.0,34.0,30.19,SW,235,0.0,0.0,95,0.03,,,0.08,,2013-01-12 02:33:00,
2013-01-11 21:43:00,35.0,34.0,30.19,SW,235,0.0,0.0,95,0.03,,,0.08,,2013-01-12 02:43:00,
2013-01-11 21:53:00,35.0,34.0,30.19,SW,235,0.0,0.0,95,0.03,,,0.09,,2013-01-12 02:53:00,
2013-01-11 22:03:00,35.0,34.0,30.19,SW,214,0.0,3.0,96,0.03,,,0.09,,2013-01-12 03:03:00,
2013-01-11 22:12:00,35.0,34.0,30.19,SW,214,0.0,3.0,96,0.03,,,0.09,,2013-01-12 03:12:00,
2013-01-11 22:22:00,35.0,34.0,30.19,WSW,248,0.0,4.0,96,0.02,,,0.09,,2013-01-12 03:22:00,
2013-01-11 22:33:00,35.0,34.0,30.17,South,169,0.0,3.0,97,0.01,,,0.09,,2013-01-12 03:33:00,
2013-01-11 22:43:00,35.0,34.0,30.17,South,169,0.0,3.0,97,0.01,,,0.09,,2013-01-12 03:43:00,
2013-01-11 22:53:00,35.0,34.0,30.17,SSW,192,1.0,6.0,97,0.00,,,0.09,,2013-01-12 03:53:00,
2013-01-11 23:02:00,35.0,34.0,30.17,SW,214,1.0,3.0,97,0.00,,,0.09,,2013-01-12 04:02:00,
2013-01-11 23:12:00,35.0,34.0,30.17,SW,214,1.0,3.0,97,0.00,,,0.09,,2013-01-12 04:12:00,
2013-01-11 23:22:00,35.0,34.0,30.18,South,172,0.0,5.0,98,0.00,,,0.09,,2013-01-12 04:22:00,
2013-01-11 23:32:00,35.0,34.0,30.19,South,172,0.0,0.0,98,0.00,,,0.09,,2013-01-12 04:32:00,
2013-01-11 23:42:00,35.0,34.0,30.19,South,172,0.0,0.0,98,0.00,,,0.09,,2013-01-12 04:42:00,
2013-01-11 23:52:00,36.0,35.0,30.19,South,172,0.0,0.0,98,0.00,,,0.09,,2013-01-12 04:52:00,